Charleston, SC

2:20 AM EDT on April 26, 2018 (GMT -0400)
Charleston Air Force Base-International

Weather History for KCHS - October, 2012

Change the Weather History Date:

Friday, October 26, 2012

  Actual Average Record
Temperature  
Mean Temperature 73 °F 64 °F  
Max Temperature 80 °F 75 °F 87 °F (1939)
Min Temperature 66 °F 53 °F 33 °F (1962)
Degree Days  
Heating Degree Days 0 3  
Month to date heating degree days 26 46  
Since 1 July heating degree days 26 49  
Cooling Degree Days 8 2  
Month to date cooling degree days 130 116  
Year to date cooling degree days 2451 2254  
Growing Degree Days 23 (Base 50)    
Moisture  
Dew Point 62 °F    
Average Humidity 74    
Maximum Humidity 93    
Minimum Humidity 54    
Precipitation  
Precipitation 0.00 in 0.09 in 1.16 in (1997)
Month to date precipitation 0.89 3.30  
Year to date precipitation 38.04 45.04  
Snow  
Snow 0.00 in 0.00 in - ()
Month to date snowfall 0.0  
Since 1 July snowfall 0.0 0.0  
Since 1 September snowfall 0.0 0.0  
Snow Depth 0.00 in    
Sea Level Pressure  
Sea Level Pressure 29.89 in    
Wind  
Wind Speed 14 mph (NNE)    
Max Wind Speed 24 mph    
Max Gust Speed 29 mph    
Visibility 10 miles    
Events      
T = Trace of Precipitation, MM = Missing Value Source: NWS Daily Summary

Daily Weather History Graph

Daily Weather History Graph

Search for Another Location

Airport or City:

Astronomy

Oct. 26, 2012 Rise Set
Actual Time 7:33 AM EDT 6:34 PM EDT
Civil Twilight 7:08 AM EDT 6:59 PM EDT
Nautical Twilight 6:39 AM EDT 7:28 PM EDT
Astronomical Twilight 6:10 AM EDT 7:57 PM EDT
Moon 4:42 PM EDT 4:36 AM EDT
Length of Visible Light 11h 51m
Length of Day
11h 00m
Waxing Gibbous, 91% of the Moon is Illuminated
Oct 26
Waxing Gibbous
Oct 29
Full
Nov 6
Last Quarter
Nov 13
New
Nov 20
First Quarter

Hourly Weather History & Observations

Time (EDT) Temp. Dew Point Humidity Pressure Visibility Wind Dir Wind Speed Gust Speed Precip Events Conditions
12:56 AM 69.1 °F 66.0 °F 90% 30.01 in 10.0 mi NE 8.1 mph - N/A   Mostly Cloudy
1:56 AM 68.0 °F 66.0 °F 93% 29.99 in 10.0 mi NE 9.2 mph - N/A   Mostly Cloudy
2:56 AM 68.0 °F 64.9 °F 90% 29.97 in 10.0 mi NE 9.2 mph - N/A   Mostly Cloudy
3:56 AM 66.9 °F 64.9 °F 93% 29.96 in 10.0 mi NE 6.9 mph - N/A   Mostly Cloudy
4:56 AM 66.9 °F 64.0 °F 90% 29.96 in 10.0 mi NNE 9.2 mph - N/A   Scattered Clouds
5:56 AM 66.0 °F 64.0 °F 93% 29.96 in 10.0 mi NE 10.4 mph - N/A   Partly Cloudy
6:56 AM 66.0 °F 63.0 °F 90% 29.96 in 10.0 mi NE 11.5 mph - N/A   Partly Cloudy
7:56 AM 66.0 °F 62.1 °F 87% 29.96 in 10.0 mi NNE 11.5 mph - N/A   Mostly Cloudy
8:56 AM 66.9 °F 62.1 °F 84% 29.97 in 10.0 mi NNE 13.8 mph - N/A   Mostly Cloudy
9:56 AM 71.1 °F 62.1 °F 73% 29.97 in 10.0 mi NE 17.3 mph 23.0 mph N/A   Mostly Cloudy
10:56 AM 75.0 °F 61.0 °F 62% 29.96 in 10.0 mi NE 12.7 mph - N/A   Overcast
11:56 AM 77.0 °F 59.0 °F 54% 29.94 in 9.0 mi NE 20.7 mph 28.8 mph N/A   Overcast
12:56 PM 79.0 °F 60.1 °F 52% 29.92 in 10.0 mi NNE 19.6 mph 25.3 mph N/A   Overcast
1:56 PM 78.1 °F 61.0 °F 56% 29.88 in 10.0 mi NNE 17.3 mph 24.2 mph N/A   Overcast
2:56 PM 79.0 °F 61.0 °F 54% 29.87 in 10.0 mi NNE 18.4 mph - N/A   Overcast
3:56 PM 77.0 °F 60.1 °F 56% 29.85 in 10.0 mi NNE 16.1 mph 21.9 mph N/A   Overcast
4:56 PM 75.0 °F 61.0 °F 62% 29.83 in 10.0 mi NNE 17.3 mph 24.2 mph N/A   Overcast
5:56 PM 73.0 °F 61.0 °F 66% 29.84 in 10.0 mi NNE 11.5 mph 27.6 mph N/A   Overcast
6:56 PM 71.1 °F 61.0 °F 70% 29.83 in 10.0 mi North 15.0 mph - N/A   Overcast
7:56 PM 70.0 °F 61.0 °F 73% 29.83 in 10.0 mi North 17.3 mph 25.3 mph N/A   Overcast
8:13 PM 69.8 °F 60.8 °F 73% 29.82 in 10.0 mi North 15.0 mph 25.3 mph N/A   Overcast
8:56 PM 69.1 °F 61.0 °F 75% 29.82 in 10.0 mi North 15.0 mph 21.9 mph N/A   Overcast
9:56 PM 69.1 °F 62.1 °F 78% 29.81 in 10.0 mi North 16.1 mph 20.7 mph N/A   Overcast
10:32 PM 69.8 °F 62.6 °F 78% 29.80 in 10.0 mi North 16.1 mph 24.2 mph N/A   Mostly Cloudy
10:56 PM 69.1 °F 62.1 °F 78% 29.80 in 10.0 mi NNE 13.8 mph 21.9 mph N/A   Overcast
11:56 PM 68.0 °F 62.1 °F 81% 29.78 in 10.0 mi North 16.1 mph 21.9 mph N/A   Overcast